{"data":{"norad_id":58861,"epoch":"2026-05-25T03:02:39.255072Z","epoch_age_seconds":60245,"freshness":"FRESH","line1":"1 58861U 24019J   26145.12684323 -.00000131  00000+0  47623-5 0  9993","line2":"2 58861  43.0014 177.1465 0001507 267.9113  92.1566 15.27574730130773","mean_motion":15.2757473,"eccentricity":0.0001507,"inclination_deg":43.0014,"raan_deg":177.1465,"arg_perigee_deg":267.9113,"mean_anomaly_deg":92.1566,"bstar":4.7623e-6,"rev_number":13077,"period_min":94.267073925738,"perigee_km":482.03089323813,"apogee_km":484.09885948366,"semimajor_km":6861.2018763609,"source":"CELESTRAK","updated_at":"2026-05-25T13:38:18.758941Z"}}